Time,TemperatureF,DewpointF,PressureIn,WindDirection,WindDirectionDegrees,WindSpeedMPH,WindSpeedGustMPH,Humidity,HourlyPrecipIn,Conditions,Clouds,dailyrainin,SolarRadiationWatts/m^2,SoftwareType,DateUTC
2013-02-02 00:00:00,65.6,54.8,30.01,ENE,76,9.0,20.0,68,0.00,RA,SCT,0.00,0.0,WeatherDisplay:10.37,2013-02-02 10:00:00,
2013-02-02 00:10:00,65.5,54.6,30.01,East,82,10.0,22.0,68,0.00,CLR,SCT,0.00,0.0,WeatherDisplay:10.37,2013-02-02 10:10:00,
2013-02-02 00:20:00,65.6,54.8,30.01,East,82,8.0,20.0,68,0.00,CLR,SCT,0.00,0.0,WeatherDisplay:10.37,2013-02-02 10:20:00,
2013-02-02 00:30:00,64.8,56.7,30.01,ENE,72,8.0,14.0,75,0.00,CLR,SCT,0.00,0.0,WeatherDisplay:10.37,2013-02-02 10:30:00,
2013-02-02 00:40:00,64.1,58.5,30.00,ENE,77,10.0,18.0,82,0.00,CLR,SCT,0.00,0.0,WeatherDisplay:10.37,2013-02-02 10:40:00,
2013-02-02 00:50:00,63.9,58.3,30.00,East,81,7.0,15.0,82,0.00,CLR,SCT,0.00,0.0,WeatherDisplay:10.37,2013-02-02 10:50:00,
2013-02-02 01:00:00,63.8,57.2,30.00,East,88,10.0,21.0,79,0.00,CLR,SCT,0.00,0.0,WeatherDisplay:10.37,2013-02-02 11:00:00,
2013-02-02 01:10:00,64.0,56.2,30.00,East,94,9.0,16.0,76,0.00,CLR,SCT,0.00,0.0,WeatherDisplay:10.37,2013-02-02 11:10:00,
2013-02-02 01:20:00,64.1,55.6,29.99,East,81,7.0,18.0,74,0.00,CLR,SCT,0.00,0.0,WeatherDisplay:10.37,2013-02-02 11:20:00,
2013-02-02 01:30:00,64.4,55.6,29.99,East,93,12.0,22.0,73,0.00,CLR,SCT,0.00,0.0,WeatherDisplay:10.37,2013-02-02 11:30:00,
2013-02-02 01:40:00,65.2,55.6,29.99,East,95,7.0,18.0,71,0.00,CLR,SCT,0.00,0.0,WeatherDisplay:10.37,2013-02-02 11:40:00,
2013-02-02 01:50:00,65.1,56.2,29.99,East,84,8.0,17.0,73,0.00,CLR,SCT,0.00,0.0,WeatherDisplay:10.37,2013-02-02 11:50:00,
2013-02-02 02:00:00,64.5,56.4,29.99,East,91,7.0,16.0,75,0.00,CLR,SCT,0.00,0.0,WeatherDisplay:10.37,2013-02-02 12:00:00,
2013-02-02 02:10:00,64.3,56.9,29.98,East,100,8.0,14.0,77,0.00,CLR,SCT,0.00,0.0,WeatherDisplay:10.37,2013-02-02 12:10:00,
2013-02-02 02:20:00,64.0,58.4,29.98,East,87,9.0,16.0,82,0.00,CLR,SCT,0.00,0.0,WeatherDisplay:10.37,2013-02-02 12:20:00,
2013-02-02 02:30:00,64.0,58.1,29.98,ESE,106,7.0,16.0,81,0.00,CLR,SCT,0.00,0.0,WeatherDisplay:10.37,2013-02-02 12:30:00,
2013-02-02 02:40:00,64.1,58.1,29.98,East,94,10.0,16.0,81,0.00,CLR,SCT,0.00,0.0,WeatherDisplay:10.37,2013-02-02 12:40:00,
2013-02-02 02:50:00,63.9,56.5,29.97,ESE,120,5.0,10.0,77,0.00,CLR,SCT,0.00,0.0,WeatherDisplay:10.37,2013-02-02 12:50:00,
2013-02-02 03:00:00,63.4,57.1,29.98,ESE,117,2.0,12.0,80,0.00,CLR,SCT,0.00,0.0,WeatherDisplay:10.37,2013-02-02 13:00:00,
2013-02-02 03:10:00,63.3,57.7,29.97,ESE,106,5.0,10.0,82,0.00,CLR,SCT,0.00,0.0,WeatherDisplay:10.37,2013-02-02 13:10:00,
2013-02-02 03:20:00,63.3,56.0,29.97,South,189,2.0,10.0,77,0.00,CLR,SCT,0.00,0.0,WeatherDisplay:10.37,2013-02-02 13:20:00,
2013-02-02 03:30:00,63.1,55.8,29.97,ESE,103,6.0,8.0,77,0.00,CLR,SCT,0.00,0.0,WeatherDisplay:10.37,2013-02-02 13:30:00,
2013-02-02 03:40:00,62.8,54.4,29.97,SE,126,7.0,9.0,74,0.00,CLR,SCT,0.00,0.0,WeatherDisplay:10.37,2013-02-02 13:40:00,
2013-02-02 03:50:00,62.9,55.2,29.98,SE,124,5.0,7.0,76,0.00,CLR,SCT,0.00,0.0,WeatherDisplay:10.37,2013-02-02 13:50:00,
2013-02-02 04:00:00,62.9,53.4,29.98,ESE,119,7.0,14.0,71,0.00,CLR,SCT,0.00,0.0,WeatherDisplay:10.37,2013-02-02 14:00:00,
2013-02-02 04:10:00,62.9,53.7,29.98,ESE,107,3.0,12.0,72,0.00,CLR,SCT,0.00,0.0,WeatherDisplay:10.37,2013-02-02 14:10:00,
2013-02-02 04:20:00,62.9,54.5,29.98,ESE,108,2.0,6.0,74,0.00,CLR,SCT,0.00,0.0,WeatherDisplay:10.37,2013-02-02 14:20:00,
2013-02-02 04:30:00,62.9,56.6,29.98,ESE,114,6.0,20.0,80,0.00,CLR,SCT,0.00,0.0,WeatherDisplay:10.37,2013-02-02 14:30:00,
2013-02-02 04:40:00,63.0,57.1,29.99,ESE,104,8.0,17.0,81,0.00,CLR,SCT,0.00,0.0,WeatherDisplay:10.37,2013-02-02 14:40:00,
2013-02-02 04:50:00,63.1,54.7,29.99,ESE,115,5.0,15.0,74,0.00,CLR,SCT,0.00,0.0,WeatherDisplay:10.37,2013-02-02 14:50:00,
2013-02-02 05:00:00,63.3,56.3,29.99,ESE,113,5.0,12.0,78,0.00,CLR,SCT,0.00,0.0,WeatherDisplay:10.37,2013-02-02 15:00:00,
2013-02-02 05:10:00,63.1,56.1,29.99,ESE,112,5.0,10.0,78,0.00,CLR,SCT,0.00,0.0,WeatherDisplay:10.37,2013-02-02 15:10:00,
2013-02-02 05:20:00,62.9,55.9,30.00,ESE,104,5.0,15.0,78,0.00,CLR,SCT,0.00,0.0,WeatherDisplay:10.37,2013-02-02 15:20:00,
2013-02-02 05:30:00,63.2,56.9,30.00,East,84,13.0,20.0,80,0.00,CLR,SCT,0.00,0.0,WeatherDisplay:10.37,2013-02-02 15:30:00,
2013-02-02 05:40:00,63.5,56.9,30.01,East,92,3.0,14.0,79,0.00,CLR,SCT,0.00,0.0,WeatherDisplay:10.37,2013-02-02 15:40:00,
2013-02-02 05:50:00,63.3,57.4,30.00,East,84,9.0,16.0,81,0.00,CLR,SCT,0.00,0.0,WeatherDisplay:10.37,2013-02-02 15:50:00,
2013-02-02 06:00:00,63.5,55.8,30.01,East,97,5.0,18.0,76,0.00,CLR,SCT,0.00,0.0,WeatherDisplay:10.37,2013-02-02 16:00:00,
2013-02-02 06:10:00,63.4,55.0,30.01,ESE,105,3.0,13.0,74,0.00,CLR,SCT,0.00,0.0,WeatherDisplay:10.37,2013-02-02 16:10:00,
2013-02-02 06:20:00,63.3,54.8,30.02,ENE,78,7.0,12.0,74,0.00,CLR,SCT,0.00,0.0,WeatherDisplay:10.37,2013-02-02 16:20:00,
2013-02-02 06:30:00,63.6,54.0,30.03,East,87,8.0,20.0,71,0.00,CLR,SCT,0.00,0.0,WeatherDisplay:10.37,2013-02-02 16:30:00,
2013-02-02 06:40:00,63.6,53.6,30.03,ESE,116,6.0,12.0,70,0.00,CLR,SCT,0.00,0.0,WeatherDisplay:10.37,2013-02-02 16:40:00,
2013-02-02 06:50:00,63.3,54.9,30.03,East,95,14.0,20.0,74,0.00,CLR,SCT,0.00,0.0,WeatherDisplay:10.37,2013-02-02 16:50:00,
2013-02-02 07:00:00,63.6,55.5,30.03,ESE,116,8.0,18.0,75,0.00,CLR,SCT,0.00,0.0,WeatherDisplay:10.37,2013-02-02 17:00:00,
2013-02-02 07:10:00,63.4,55.0,30.04,East,93,5.0,12.0,74,0.00,CLR,SCT,0.00,5.6,WeatherDisplay:10.37,2013-02-02 17:10:00,
2013-02-02 07:20:00,63.1,55.7,30.03,East,95,9.0,13.0,77,0.00,CLR,SCT,0.00,9.4,WeatherDisplay:10.37,2013-02-02 17:20:00,
2013-02-02 07:30:00,63.2,54.7,30.04,East,93,9.0,15.0,74,0.00,CLR,SCT,0.00,16.0,WeatherDisplay:10.37,2013-02-02 17:30:00,
2013-02-02 07:40:00,63.5,55.8,30.04,East,91,8.0,13.0,76,0.00,CLR,SCT,0.00,19.3,WeatherDisplay:10.37,2013-02-02 17:40:00,
2013-02-02 07:50:00,63.5,55.8,30.04,East,89,7.0,18.0,76,0.00,CLR,SCT,0.00,27.7,WeatherDisplay:10.37,2013-02-02 17:50:00,
2013-02-02 08:00:00,63.7,57.1,30.04,East,84,8.0,16.0,79,0.00,CLR,SCT,0.00,26.3,WeatherDisplay:10.37,2013-02-02 18:00:00,
2013-02-02 08:10:00,63.8,56.4,30.05,East,87,10.0,17.0,77,0.00,SCT,SCT,0.00,48.4,WeatherDisplay:10.37,2013-02-02 18:10:00,
2013-02-02 08:20:00,64.7,56.6,30.06,ESE,110,5.0,13.0,75,0.00,SCT,SCT,0.00,258.0,WeatherDisplay:10.37,2013-02-02 18:20:00,
2013-02-02 08:30:00,65.5,57.3,30.05,East,81,10.0,27.0,75,0.00,SCT,SCT,0.00,54.1,WeatherDisplay:10.37,2013-02-02 18:30:00,
2013-02-02 08:40:00,66.4,57.4,30.06,ESE,107,9.0,27.0,73,0.00,SCT,SCT,0.00,292.3,WeatherDisplay:10.37,2013-02-02 18:40:00,
2013-02-02 08:50:00,67.5,58.2,30.06,East,90,6.0,14.0,72,0.00,SCT,SCT,0.00,302.7,WeatherDisplay:10.37,2013-02-02 18:50:00,
2013-02-02 09:00:00,68.3,58.1,30.06,East,83,6.0,17.0,70,0.00,SCT,SCT,0.00,316.8,WeatherDisplay:10.37,2013-02-02 19:00:00,
2013-02-02 09:10:00,68.8,57.8,30.06,East,95,8.0,16.0,68,0.00,FEW,SCT,0.00,322.4,WeatherDisplay:10.37,2013-02-02 19:10:00,
2013-02-02 09:20:00,69.1,58.5,30.06,East,95,7.0,17.0,69,0.00,FEW,SCT,0.00,327.1,WeatherDisplay:10.37,2013-02-02 19:20:00,
2013-02-02 09:30:00,69.7,58.3,30.07,East,92,10.0,18.0,67,0.00,FEW,SCT,0.00,330.4,WeatherDisplay:10.37,2013-02-02 19:30:00,
2013-02-02 09:40:00,69.9,58.5,30.07,East,97,10.0,17.0,67,0.00,FEW,SCT,0.00,335.1,WeatherDisplay:10.37,2013-02-02 19:40:00,
2013-02-02 09:50:00,70.3,58.4,30.07,East,88,9.0,18.0,66,0.00,FEW,SCT,0.00,338.4,WeatherDisplay:10.37,2013-02-02 19:50:00,
2013-02-02 10:00:00,70.6,58.3,30.07,East,85,10.0,20.0,65,0.00,FEW,SCT,0.00,344.0,WeatherDisplay:10.37,2013-02-02 20:00:00,
2013-02-02 10:10:00,70.6,57.8,30.07,East,91,10.0,20.0,64,0.00,FEW,SCT,0.00,348.7,WeatherDisplay:10.37,2013-02-02 20:10:00,
2013-02-02 10:20:00,71.2,58.4,30.07,East,87,7.0,20.0,64,0.00,FEW,SCT,0.00,353.4,WeatherDisplay:10.37,2013-02-02 20:20:00,
2013-02-02 10:30:00,72.1,58.8,30.07,East,82,9.0,20.0,63,0.00,FEW,SCT,0.00,352.0,WeatherDisplay:10.37,2013-02-02 20:30:00,
2013-02-02 10:40:00,71.9,58.7,30.07,ENE,75,9.0,20.0,63,0.00,FEW,SCT,0.00,356.7,WeatherDisplay:10.37,2013-02-02 20:40:00,
2013-02-02 10:50:00,72.5,58.3,30.07,East,91,12.0,25.0,61,0.00,FEW,SCT,0.00,359.1,WeatherDisplay:10.37,2013-02-02 20:50:00,
2013-02-02 11:00:00,72.7,57.5,30.06,East,95,10.0,18.0,59,0.00,FEW,SCT,0.00,360.0,WeatherDisplay:10.37,2013-02-02 21:00:00,
2013-02-02 11:10:00,73.5,60.1,30.06,East,84,10.0,15.0,63,0.00,FEW,SCT,0.00,362.4,WeatherDisplay:10.37,2013-02-02 21:10:00,
2013-02-02 11:20:00,73.4,60.1,30.06,East,90,9.0,20.0,63,0.00,FEW,SCT,0.00,363.8,WeatherDisplay:10.37,2013-02-02 21:20:00,
2013-02-02 11:30:00,73.3,60.4,30.06,East,80,9.0,16.0,64,0.00,FEW,SCT,0.00,363.8,WeatherDisplay:10.37,2013-02-02 21:30:00,
2013-02-02 11:40:00,73.2,60.7,30.05,ENE,75,9.0,15.0,65,0.00,FEW,SCT,0.00,363.8,WeatherDisplay:10.37,2013-02-02 21:40:00,
2013-02-02 11:50:00,72.8,60.4,30.05,ENE,70,10.0,21.0,65,0.00,FEW,SCT,0.00,364.7,WeatherDisplay:10.37,2013-02-02 21:50:00,
2013-02-02 12:00:00,73.0,59.7,30.05,East,86,10.0,18.0,63,0.00,FEW,SCT,0.00,362.4,WeatherDisplay:10.37,2013-02-02 22:00:00,
2013-02-02 12:10:00,73.4,60.5,30.04,East,80,12.0,18.0,64,0.00,FEW,SCT,0.00,364.7,WeatherDisplay:10.37,2013-02-02 22:10:00,
2013-02-02 12:20:00,73.5,60.1,30.04,ENE,75,10.0,20.0,63,0.00,FEW,SCT,0.00,364.7,WeatherDisplay:10.37,2013-02-02 22:20:00,
2013-02-02 12:30:00,73.4,60.1,30.04,ENE,71,9.0,18.0,63,0.00,FEW,SCT,0.00,363.8,WeatherDisplay:10.37,2013-02-02 22:30:00,
2013-02-02 12:40:00,73.1,59.7,30.03,ENE,78,9.0,19.0,63,0.00,FEW,SCT,0.00,361.4,WeatherDisplay:10.37,2013-02-02 22:40:00,
2013-02-02 12:50:00,72.7,59.8,30.03,ENE,76,12.0,18.0,64,0.00,FEW,SCT,0.00,359.1,WeatherDisplay:10.37,2013-02-02 22:50:00,
2013-02-02 13:00:00,72.8,59.5,30.02,East,81,8.0,20.0,63,0.00,FEW,SCT,0.00,356.7,WeatherDisplay:10.37,2013-02-02 23:00:00,
2013-02-02 13:10:00,73.4,60.5,30.02,East,85,10.0,20.0,64,0.00,FEW,SCT,0.00,339.8,WeatherDisplay:10.37,2013-02-02 23:10:00,
2013-02-02 13:20:00,73.1,60.6,30.01,East,86,13.0,20.0,65,0.00,CLR,SCT,0.00,355.8,WeatherDisplay:10.37,2013-02-02 23:20:00,
2013-02-02 13:30:00,72.9,60.9,30.00,East,89,9.0,18.0,66,0.00,CLR,SCT,0.00,350.1,WeatherDisplay:10.37,2013-02-02 23:30:00,
2013-02-02 13:40:00,72.7,60.3,30.00,East,79,14.0,21.0,65,0.00,CLR,SCT,0.00,324.8,WeatherDisplay:10.37,2013-02-02 23:40:00,
2013-02-02 13:50:00,73.0,60.1,30.00,ENE,73,10.0,21.0,64,0.00,CLR,SCT,0.00,346.4,WeatherDisplay:10.37,2013-02-02 23:50:00,
2013-02-02 14:00:00,73.1,59.8,30.00,East,80,10.0,23.0,63,0.00,CLR,SCT,0.00,341.7,WeatherDisplay:10.37,2013-02-03 00:00:00,
2013-02-02 14:10:00,73.5,59.7,30.00,East,80,10.0,18.0,62,0.00,FEW,SCT,0.00,339.8,WeatherDisplay:10.37,2013-02-03 00:10:00,
2013-02-02 14:20:00,74.2,59.8,30.00,ENE,72,10.0,20.0,61,0.00,FEW,SCT,0.00,336.1,WeatherDisplay:10.37,2013-02-03 00:20:00,
2013-02-02 14:30:00,74.0,60.2,30.00,East,81,10.0,18.0,62,0.00,FEW,SCT,0.00,336.1,WeatherDisplay:10.37,2013-02-03 00:30:00,
2013-02-02 14:40:00,74.0,60.6,30.00,ENE,78,8.0,16.0,63,0.00,FEW,SCT,0.00,331.3,WeatherDisplay:10.37,2013-02-03 00:40:00,
2013-02-02 14:50:00,73.9,60.5,30.00,ENE,75,9.0,16.0,63,0.00,FEW,SCT,0.00,328.1,WeatherDisplay:10.37,2013-02-03 00:50:00,
2013-02-02 15:00:00,73.8,60.9,30.00,East,80,8.0,18.0,64,0.00,FEW,SCT,0.00,323.4,WeatherDisplay:10.37,2013-02-03 01:00:00,
2013-02-02 15:10:00,73.5,60.6,29.99,ENE,76,9.0,18.0,64,0.00,FEW,SCT,0.00,317.7,WeatherDisplay:10.37,2013-02-03 01:10:00,
2013-02-02 15:20:00,73.5,60.1,29.99,ENE,69,12.0,18.0,63,0.00,FEW,SCT,0.00,313.0,WeatherDisplay:10.37,2013-02-03 01:20:00,
2013-02-02 15:30:00,73.2,60.3,29.99,ENE,70,14.0,17.0,64,0.00,FEW,SCT,0.00,309.7,WeatherDisplay:10.37,2013-02-03 01:30:00,
2013-02-02 15:40:00,72.5,59.6,30.00,ENE,75,12.0,17.0,64,0.00,FEW,SCT,0.00,304.1,WeatherDisplay:10.37,2013-02-03 01:40:00,
2013-02-02 15:50:00,72.4,60.0,30.00,East,83,7.0,18.0,65,0.00,FEW,SCT,0.00,296.1,WeatherDisplay:10.37,2013-02-03 01:50:00,
2013-02-02 16:00:00,72.4,59.5,30.00,ENE,78,9.0,16.0,64,0.00,FEW,SCT,0.00,289.1,WeatherDisplay:10.37,2013-02-03 02:00:00,
2013-02-02 16:10:00,72.1,59.7,30.00,East,80,9.0,16.0,65,0.00,FEW,SCT,0.00,281.1,WeatherDisplay:10.37,2013-02-03 02:10:00,
2013-02-02 16:20:00,72.1,59.2,30.00,East,85,7.0,15.0,64,0.00,FEW,SCT,0.00,275.4,WeatherDisplay:10.37,2013-02-03 02:20:00,
2013-02-02 16:30:00,72.1,59.3,30.01,East,85,8.0,15.0,64,0.00,FEW,SCT,0.00,262.7,WeatherDisplay:10.37,2013-02-03 02:30:00,
2013-02-02 16:40:00,72.1,58.8,30.01,East,82,10.0,16.0,63,0.00,FEW,SCT,0.00,252.4,WeatherDisplay:10.37,2013-02-03 02:40:00,
2013-02-02 16:50:00,71.0,58.2,30.01,ENE,77,8.0,15.0,64,0.00,FEW,SCT,0.00,242.1,WeatherDisplay:10.37,2013-02-03 02:50:00,
2013-02-02 17:00:00,70.6,57.8,30.01,East,88,12.0,16.0,64,0.00,FEW,SCT,0.00,229.4,WeatherDisplay:10.37,2013-02-03 03:00:00,
2013-02-02 17:10:00,69.7,57.0,30.01,East,90,10.0,17.0,64,0.00,FEW,SCT,0.00,214.3,WeatherDisplay:10.37,2013-02-03 03:10:00,
2013-02-02 17:20:00,68.8,56.6,30.02,East,92,8.0,17.0,65,0.00,FEW,SCT,0.00,192.7,WeatherDisplay:10.37,2013-02-03 03:20:00,
2013-02-02 17:30:00,67.9,56.5,30.02,East,101,7.0,16.0,67,0.00,FEW,SCT,0.00,169.7,WeatherDisplay:10.37,2013-02-03 03:30:00,
2013-02-02 17:40:00,67.4,56.8,30.02,East,89,7.0,13.0,69,0.00,FEW,SCT,0.00,141.0,WeatherDisplay:10.37,2013-02-03 03:40:00,
2013-02-02 17:50:00,66.8,56.3,30.02,East,91,10.0,18.0,69,0.00,FEW,SCT,0.00,107.6,WeatherDisplay:10.37,2013-02-03 03:50:00,
2013-02-02 18:00:00,66.2,56.5,30.03,East,91,9.0,15.0,71,0.00,FEW,SCT,0.00,63.0,WeatherDisplay:10.37,2013-02-03 04:00:00,
2013-02-02 18:10:00,65.7,56.8,30.03,East,96,10.0,18.0,73,0.00,FEW,SCT,0.00,11.3,WeatherDisplay:10.37,2013-02-03 04:10:00,
2013-02-02 18:20:00,65.2,57.0,30.03,East,86,7.0,15.0,75,0.00,FEW,SCT,0.00,0.0,WeatherDisplay:10.37,2013-02-03 04:20:00,
2013-02-02 18:30:00,64.5,57.2,30.04,East,82,7.0,16.0,77,0.00,FEW,SCT,0.00,0.0,WeatherDisplay:10.37,2013-02-03 04:30:00,
2013-02-02 18:40:00,64.1,57.1,30.05,ENE,78,8.0,14.0,78,0.00,FEW,SCT,0.00,0.0,WeatherDisplay:10.37,2013-02-03 04:40:00,
2013-02-02 18:50:00,63.8,56.5,30.04,East,87,5.0,18.0,77,0.00,FEW,SCT,0.00,0.0,WeatherDisplay:10.37,2013-02-03 04:50:00,
2013-02-02 19:00:00,63.6,55.5,30.05,East,87,8.0,20.0,75,0.00,FEW,SCT,0.00,0.0,WeatherDisplay:10.37,2013-02-03 05:00:00,
2013-02-02 19:10:00,63.5,55.1,30.05,East,79,8.0,16.0,74,0.00,FEW,SCT,0.00,0.0,WeatherDisplay:10.37,2013-02-03 05:10:00,
2013-02-02 19:20:00,63.4,55.0,30.05,East,90,6.0,17.0,74,0.00,CLR,SCT,0.00,0.0,WeatherDisplay:10.37,2013-02-03 05:20:00,
2013-02-02 19:30:00,63.2,54.8,30.05,East,83,7.0,17.0,74,0.00,CLR,SCT,0.00,0.0,WeatherDisplay:10.37,2013-02-03 05:30:00,
2013-02-02 19:40:00,63.1,55.0,30.05,East,91,8.0,15.0,75,0.00,CLR,SCT,0.00,0.0,WeatherDisplay:10.37,2013-02-03 05:40:00,
2013-02-02 20:30:00,61.9,54.3,30.06,ENE,77,5.0,10.0,76,0.00,CLR,SCT,0.00,0.0,WeatherDisplay:10.37,2013-02-03 06:30:00,
2013-02-02 20:40:00,61.8,54.2,30.07,East,80,3.0,10.0,76,0.00,CLR,SCT,0.00,0.0,WeatherDisplay:10.37,2013-02-03 06:40:00,
2013-02-02 20:50:00,61.8,54.1,30.07,East,91,6.0,10.0,76,0.00,CLR,SCT,0.00,0.0,WeatherDisplay:10.37,2013-02-03 06:50:00,
2013-02-02 21:00:00,61.6,54.0,30.07,East,90,5.0,8.0,76,0.00,CLR,SCT,0.00,0.0,WeatherDisplay:10.37,2013-02-03 07:00:00,
2013-02-02 21:10:00,61.1,53.5,30.07,ESE,103,3.0,9.0,76,0.00,CLR,SCT,0.00,0.0,WeatherDisplay:10.37,2013-02-03 07:10:00,
2013-02-02 21:20:00,60.9,53.6,30.07,East,98,5.0,9.0,77,0.00,CLR,SCT,0.00,0.0,WeatherDisplay:10.37,2013-02-03 07:20:00,
2013-02-02 21:30:00,60.8,53.5,30.07,ESE,104,6.0,10.0,77,0.00,CLR,SCT,0.00,0.0,WeatherDisplay:10.37,2013-02-03 07:30:00,
2013-02-02 21:40:00,61.1,54.2,30.07,East,93,6.0,14.0,78,0.00,CLR,SCT,0.00,0.0,WeatherDisplay:10.37,2013-02-03 07:40:00,
2013-02-02 21:50:00,61.2,53.9,30.07,East,94,5.0,8.0,77,0.00,CLR,SCT,0.00,0.0,WeatherDisplay:10.37,2013-02-03 07:50:00,
2013-02-02 22:00:00,60.7,52.7,30.07,East,99,3.0,10.0,75,0.00,CLR,SCT,0.00,0.0,WeatherDisplay:10.37,2013-02-03 08:00:00,
2013-02-02 22:10:00,60.2,52.6,30.07,East,96,3.0,9.0,76,0.00,CLR,SCT,0.00,0.0,WeatherDisplay:10.37,2013-02-03 08:10:00,
2013-02-02 22:20:00,59.6,51.7,30.06,East,94,2.0,7.0,75,0.00,CLR,SCT,0.00,0.0,WeatherDisplay:10.37,2013-02-03 08:20:00,
2013-02-02 22:30:00,59.0,51.1,30.06,East,90,3.0,7.0,75,0.00,CLR,SCT,0.00,0.0,WeatherDisplay:10.37,2013-02-03 08:30:00,
2013-02-02 22:40:00,58.4,50.5,30.06,East,92,0.0,5.0,75,0.00,CLR,SCT,0.00,0.0,WeatherDisplay:10.37,2013-02-03 08:40:00,
2013-02-02 22:50:00,57.9,51.4,30.06,East,95,1.0,5.0,79,0.00,CLR,SCT,0.00,0.0,WeatherDisplay:10.37,2013-02-03 08:50:00,
2013-02-02 23:00:00,57.4,51.0,30.06,East,90,1.0,6.0,79,0.00,CLR,SCT,0.00,0.0,WeatherDisplay:10.37,2013-02-03 09:00:00,
2013-02-02 23:10:00,56.9,50.8,30.06,East,101,0.0,3.0,80,0.00,CLR,SCT,0.00,0.0,WeatherDisplay:10.37,2013-02-03 09:10:00,
2013-02-02 23:20:00,56.4,51.0,30.06,ESE,102,0.0,2.0,82,0.00,CLR,SCT,0.00,0.0,WeatherDisplay:10.37,2013-02-03 09:20:00,
2013-02-02 23:30:00,55.9,50.8,30.06,ESE,102,0.0,1.0,83,0.00,CLR,SCT,0.00,0.0,WeatherDisplay:10.37,2013-02-03 09:30:00,
2013-02-02 23:40:00,55.4,50.6,30.06,East,87,2.0,3.0,84,0.00,CLR,SCT,0.00,0.0,WeatherDisplay:10.37,2013-02-03 09:40:00,
2013-02-02 23:50:00,55.0,50.3,30.06,East,99,0.0,3.0,84,0.00,CLR,SCT,0.00,0.0,WeatherDisplay:10.37,2013-02-03 09:50:00,